Location: Blackrock Ranger Station
(36.0936°N, 118.2611°W)
Time: 08:38:45
(UTC-07:00)

AO-7 - Pass Details

Date: 26 February 2026
Orbit: 1440 x 1458 km, 102.0° (Epoch: 15 March)

Event Time Altitude Azimuth Distance (km) Brightness Sun altitude
Rises 18:07:12 0° 181° (S) 4,513 ? -5.2°
Reaches altitude 10° 18:10:06 10° 187° (S) 3,539 ? -5.8°
Maximum altitude 18:17:55 46° 258° (WSW) 1,852 ? -7.4°
Drops below altitude 10° 18:25:50 10° 330° (NNW) 3,566 ? -8.9°
Sets 18:28:48 0° 337° (NNW) 4,550 ? -9.5°
